Temp
12 12 12 12 12 12 12 13 13 13 13 13 13 13 12 12 12 12 13 12 12 12 12 12 12 11 11 10 10 9 10 11 10 10 11 11 10 9 10 12 10 10 11 10 9
12 12 12 12 12 13 13 13 13 13 13 13 13 13 13 13 12 12 12 12 12 12 12 13 13 12 13 10 10 10 11 11 11 11 10 10 9 10 9 10 10 11 10 10 8
12 12 12 12 12 13 13 13 13 13 13 13 13 13 13 13 13 12 12 12 12 12 12 13 13 13 13 12 12 11 12 12 11 10 10 9 9 10 9 9 11 11 11 10 8
12 12 12 12 12 13 13 13 13 13 13 13 13 13 13 13 13 12 12 12 12 12 13 13 13 12 12 12 11 12 12 12 11 10 10 9 10 10 10 9 10 10 10 10 9
12 12 12 13 13 13 13 13 13 13 13 13 13 13 13 13 12 12 12 12 12 12 13 13 12 12 12 12 12 12 12 11 10 9 10 10 9 9 10 9 8 9 10 10 9
12 12 12 13 13 13 13 13 13 13 13 13 13 13 13 13 12 12 12 12 12 12 12 13 12 12 12 12 12 12 12 9 9 10 9 10 9 9 9 9 9 8 9 9 9
12 12 13 13 13 13 13 13 13 13 13 13 13 13 13 13 13 12 12 13 12 12 12 12 12 12 12 12 12 11 11 10 12 11 9 9 9 9 9 10 9 9 9 9 8
12 12 13 13 13 13 13 13 13 13 13 13 13 13 13 13 13 12 12 13 12 12 12 12 12 12 12 12 12 12 12 11 12 12 10 10 9 9 9 9 9 9 9 9 8
12 12 13 13 13 13 13 13 12 12 12 12 13 13 12 12 12 13 13 12 12 12 12 12 12 12 12 12 12 12 12 11 12 12 10 10 9 9 9 9 9 9 9 9 9
13 13 12 13 13 13 13 12 12 12 12 12 13 12 12 12 12 12 13 12 12 11 12 12 12 12 13 12 12 13 12 12 12 11 10 10 10 9 9 9 9 9 9 9 9
12 12 13 12 12 13 12 12 12 12 12 13 13 12 12 11 12 12 12 12 11 11 11 12 12 12 13 13 13 13 13 13 12 12 11 11 10 10 10 9 9 9 10 9 9
12 12 12 12 12 12 12 12 11 11 14 14 13 13 11 11 11 12 12 12 11 11 11 12 12 14 14 14 13 13 14 13 13 12 11 10 12 12 11 11 10 9 9 9 9
13 13 12 12 12 12 12 12 10 11 13 16 15 14 13 12 12 12 12 12 12 12 12 12 14 13 13 13 13 13 14 14 13 12 11 10 11 11 12 11 10 10 9 9 9
13 13 13 12 12 11 11 12 12 12 12 16 15 15 13 12 12 12 13 12 12 13 12 13 14 14 14 14 14 14 15 14 13 13 12 11 11 12 12 12 10 11 11 10 10
12 13 13 12 11 11 11 11 11 12 9 15 15 14 14 14 13 14 13 12 13 13 12 13 13 14 14 14 15 15 15 15 13 14 13 12 10 14 13 14 13 12 11 11 10
12 12 12 12 11 10 11 11 11 11 10 14 15 15 14 13 13 13 13 12 13 13 13 13 13 14 14 15 15 15 15 15 15 14 13 13 13 13 14 15 14 12 12 11 11
12 12 12 12 11 11 10 10 10 10 14 14 14 15 15 14 14 13 13 13 13 13 13 14 14 14 14 15 15 15 15 14 12 12 11 14 13 14 14 14 14 13 12 12 12
12 12 12 12 11 10 10 10 11 13 13 13 13 13 14 14 14 13 13 13 13 13 14 13 14 14 15 15 15 15 15 14 12 9 12 14 14 14 14 13 14 14 12 12 12
12 12 12 11 11 10 10 9 12 12 12 13 14 14 14 14 14 14 14 14 14 14 14 14 14 15 15 15 15 15 15 15 15 13 12 14 14 14 14 14 14 14 13 12 12
11 11 11 9 10 10 9 10 11 12 12 12 11 12 13 14 14 14 14 15 15 15 15 15 14 16 15 15 15 15 15 15 14 9 10 12 12 14 14 14 14 14 13 13 13
10 10 9 9 9 9 9 10 11 11 11 11 12 12 12 13 13 14 14 14 15 15 15 15 14 16 15 15 16 15 15 15 15 15 9 8 13 15 15 14 14 14 13 13 13
10 9 9 9 9 9 10 9 9 10 11 11 11 12 12 12 13 13 14 14 15 15 15 16 15 15 16 16 15 16 16 16 15 15 15 14 14 15 14 14 14 13 13 12 12
9 8 7 7 8 8 8 8 8 9 10 11 11 12 12 12 12 12 13 14 14 15 15 15 15 15 15 16 16 16 16 16 16 15 15 13 14 14 14 13 13 13 12 12 11
8 7 6 6 6 6 7 8 8 10 10 10 11 11 12 12 12 12 12 14 14 14 14 15 15 15 15 16 16 16 16 16 15 14 14 13 13 14 14 13 13 13 12 11 12
7 8 7 6 6 6 6 7 8 9 9 10 10 11 11 11 11 12 12 12 13 13 14 14 14 15 15 15 15 15 15 15 15 14 13 14 13 14 15 14 13 13 11 13 12
6 6 7 6 6 6 7 7 7 8 8 9 9 10 9 10 8 9 10 11 12 13 13 13 14 15 15 15 14 15 15 15 15 14 14 14 14 12 14 14 13 12 13 13 13
5 5 6 7 6 5 6 6 6 6 8 7 7 8 9 9 8 8 8 9 9 11 11 12 12 13 13 14 14 13 14 15 14 15 14 14 14 12 13 13 14 14 13 14 13
Height
3158 3157 3157 3156 3156 3155 3155 3155 3155 3155 3155 3156 3157 3159 3161 3163 3165 3167 3170 3173 3174 3175 3176 3178 3179 3180 3180 3179 3178 3176 3177 3176 3178 3172 3174 3173 3173 3176 3177 3178 3178 3180 3180 3179 3180
3159 3158 3157 3157 3156 3155 3155 3155 3154 3154 3154 3155 3155 3157 3158 3160 3163 3167 3170 3171 3173 3174 3176 3178 3179 3180 3179 3179 3178 3178 3178 3177 3177 3176 3175 3174 3175 3176 3177 3178 3176 3179 3178 3180 3182
3160 3159 3158 3157 3156 3155 3155 3154 3154 3154 3154 3154 3154 3155 3157 3159 3162 3166 3167 3169 3171 3174 3176 3178 3179 3179 3178 3179 3176 3180 3179 3178 3179 3177 3177 3171 3174 3174 3174 3178 3178 3179 3179 3180 3182
3161 3160 3159 3157 3156 3155 3155 3155 3154 3154 3153 3153 3153 3154 3156 3158 3163 3162 3165 3167 3169 3172 3175 3176 3177 3179 3178 3176 3176 3178 3178 3176 3176 3176 3176 3175 3176 3176 3177 3179 3179 3179 3180 3180 3182
3161 3160 3159 3158 3156 3156 3155 3155 3154 3154 3153 3153 3153 3153 3155 3158 3160 3161 3163 3165 3168 3171 3174 3175 3177 3178 3178 3177 3177 3178 3178 3177 3176 3176 3176 3177 3177 3178 3177 3179 3179 3181 3180 3181 3183
3162 3160 3159 3158 3157 3156 3155 3155 3154 3154 3153 3153 3153 3153 3155 3158 3159 3160 3161 3162 3166 3169 3172 3174 3177 3176 3177 3178 3178 3177 3176 3178 3178 3177 3178 3178 3177 3178 3178 3178 3181 3184 3182 3181 3181
3162 3160 3159 3158 3157 3156 3155 3155 3154 3154 3153 3152 3153 3153 3154 3158 3157 3158 3158 3160 3164 3167 3171 3173 3174 3174 3178 3178 3177 3178 3176 3178 3177 3175 3175 3176 3177 3177 3178 3179 3181 3185 3186 3185 3185
3160 3159 3158 3157 3157 3156 3155 3154 3154 3153 3153 3152 3152 3153 3154 3155 3156 3157 3157 3159 3162 3165 3169 3171 3171 3173 3176 3177 3177 3177 3177 3174 3172 3173 3172 3174 3175 3176 3178 3179 3181 3185 3187 3187 3187
3159 3158 3157 3157 3156 3155 3155 3154 3153 3152 3152 3151 3152 3152 3153 3154 3153 3154 3155 3157 3160 3163 3167 3168 3170 3172 3175 3176 3175 3175 3173 3172 3172 3171 3170 3174 3175 3174 3177 3179 3180 3183 3185 3187 3187
3157 3156 3156 3155 3154 3154 3153 3153 3152 3151 3150 3150 3150 3153 3153 3153 3153 3151 3152 3155 3158 3161 3164 3166 3167 3169 3171 3173 3172 3170 3170 3170 3169 3171 3171 3172 3176 3176 3176 3176 3177 3181 3183 3186 3185
3155 3154 3153 3153 3152 3152 3153 3152 3154 3152 3148 3149 3148 3148 3150 3150 3151 3152 3153 3154 3156 3159 3161 3164 3165 3164 3168 3171 3170 3169 3169 3169 3169 3169 3171 3172 3172 3175 3176 3175 3176 3178 3180 3183 3186
3152 3151 3150 3150 3150 3151 3151 3151 3150 3149 3143 3145 3145 3146 3147 3148 3151 3152 3153 3154 3155 3156 3159 3162 3158 3161 3166 3168 3168 3167 3167 3168 3169 3170 3174 3174 3172 3169 3169 3166 3169 3175 3175 3181 3184
3149 3147 3147 3146 3147 3148 3147 3147 3147 3144 3141 3141 3140 3142 3145 3147 3147 3152 3153 3153 3155 3156 3157 3157 3158 3161 3163 3164 3167 3166 3167 3168 3169 3169 3170 3169 3167 3166 3165 3163 3164 3169 3174 3176 3179
3146 3144 3143 3143 3146 3144 3144 3145 3144 3143 3142 3140 3138 3139 3141 3144 3146 3149 3151 3154 3155 3154 3157 3158 3157 3157 3158 3160 3162 3163 3164 3165 3166 3167 3166 3165 3163 3161 3161 3160 3161 3163 3161 3169 3174
3141 3140 3139 3140 3140 3140 3142 3143 3143 3144 3145 3139 3138 3139 3140 3143 3145 3147 3149 3151 3152 3153 3156 3154 3154 3155 3155 3156 3158 3161 3162 3162 3162 3162 3161 3164 3164 3156 3158 3155 3156 3156 3162 3166 3171
3137 3136 3135 3135 3136 3136 3139 3141 3143 3147 3140 3137 3137 3137 3139 3140 3142 3145 3148 3150 3151 3151 3151 3150 3151 3152 3152 3152 3155 3156 3157 3158 3160 3160 3159 3160 3157 3155 3154 3153 3154 3156 3159 3164 3167
3134 3132 3131 3131 3131 3133 3135 3140 3144 3140 3137 3137 3136 3136 3138 3138 3140 3142 3144 3146 3147 3148 3147 3148 3146 3146 3149 3149 3151 3152 3154 3155 3158 3159 3158 3158 3157 3155 3154 3152 3152 3153 3157 3161 3165
3131 3129 3128 3128 3129 3130 3133 3137 3138 3133 3134 3136 3137 3139 3137 3137 3138 3138 3140 3141 3143 3144 3145 3146 3143 3143 3144 3145 3146 3148 3150 3152 3158 3160 3155 3156 3152 3153 3150 3149 3150 3150 3154 3159 3161
3128 3126 3125 3125 3126 3128 3131 3132 3129 3131 3134 3134 3134 3131 3135 3137 3139 3139 3136 3136 3138 3140 3141 3140 3139 3140 3139 3138 3143 3145 3146 3148 3151 3152 3153 3151 3148 3148 3148 3149 3149 3149 3149 3153 3156
3126 3125 3124 3124 3125 3127 3129 3128 3127 3130 3132 3133 3133 3133 3134 3136 3136 3138 3135 3132 3133 3135 3136 3136 3138 3135 3136 3135 3139 3141 3144 3146 3147 3153 3154 3147 3145 3143 3143 3144 3146 3148 3149 3152 3155
3124 3125 3125 3124 3125 3126 3125 3125 3126 3129 3131 3131 3129 3130 3131 3130 3130 3130 3130 3131 3131 3130 3131 3132 3135 3133 3134 3136 3135 3138 3139 3141 3143 3143 3144 3146 3139 3137 3138 3138 3142 3145 3150 3152 3156
3122 3122 3122 3122 3124 3122 3122 3123 3123 3122 3124 3125 3125 3125 3125 3125 3123 3124 3124 3126 3125 3124 3124 3127 3128 3128 3129 3132 3133 3133 3133 3135 3137 3139 3137 3136 3136 3135 3135 3139 3142 3146 3148 3150 3152
3120 3120 3120 3120 3122 3121 3120 3119 3119 3119 3120 3119 3119 3120 3120 3119 3119 3117 3117 3120 3121 3121 3122 3121 3120 3123 3124 3127 3128 3128 3130 3131 3132 3133 3132 3132 3132 3134 3135 3137 3141 3143 3146 3147 3148
3118 3118 3117 3118 3118 3117 3115 3116 3115 3116 3114 3115 3113 3112 3112 3112 3114 3112 3111 3113 3114 3114 3115 3115 3115 3117 3118 3122 3124 3124 3125 3126 3128 3129 3131 3129 3131 3130 3132 3135 3138 3140 3143 3144 3149
3114 3113 3113 3114 3114 3113 3114 3114 3113 3112 3110 3110 3109 3110 3107 3107 3107 3106 3106 3106 3108 3109 3111 3111 3109 3113 3114 3116 3118 3120 3121 3123 3124 3125 3128 3129 3128 3129 3127 3128 3131 3134 3139 3144 3147
3111 3112 3112 3111 3111 3109 3110 3110 3107 3106 3106 3106 3105 3105 3103 3103 3102 3101 3100 3102 3103 3101 3104 3107 3106 3106 3108 3111 3114 3115 3116 3118 3119 3120 3122 3123 3124 3127 3129 3128 3130 3133 3138 3141 3143
3106 3105 3105 3106 3105 3104 3104 3101 3100 3098 3101 3101 3099 3099 3099 3099 3097 3097 3096 3097 3098 3098 3100 3102 3101 3101 3103 3105 3108 3109 3111 3113 3116 3116 3117 3116 3121 3124 3128 3131 3131 3133 3136 3139 3141
Wind_Speed
9 8 6 5 4 3 1 0 1 3 6 8 10 12 15 15 14 11 8 8 7 8 10 10 9 4 3 5 8 13 12 13 4 15 24 15 17 20 10 6 7 0 3 10 14
9 8 7 5 4 3 2 1 1 1 2 5 8 9 11 14 15 12 10 7 8 8 11 9 8 1 3 10 16 15 12 7 2 8 21 14 13 15 19 13 4 5 7 7 14
10 9 8 6 5 4 3 3 2 1 0 2 5 8 8 9 11 12 13 9 9 9 9 8 5 1 8 10 14 6 6 7 9 5 13 15 17 18 8 17 5 7 3 5 15
10 10 9 8 6 5 4 3 2 2 1 1 2 6 7 7 5 14 16 12 10 10 9 7 2 1 14 19 7 8 5 8 14 2 7 10 21 14 14 14 8 2 6 4 11
10 10 10 9 7 5 4 3 2 2 1 1 2 4 6 8 7 7 17 16 14 12 10 7 6 4 19 6 1 5 8 5 9 3 5 11 20 13 19 18 13 3 4 6 12
10 9 8 8 7 6 5 4 3 2 1 1 1 3 6 9 7 7 8 19 18 14 12 11 4 5 13 11 5 6 5 9 7 5 3 11 17 19 19 19 15 7 8 10 6
9 8 7 6 6 6 5 4 4 4 3 3 2 3 5 7 3 1 7 11 18 14 12 13 10 4 9 7 10 5 6 4 2 9 7 9 12 17 16 14 14 10 15 15 17
9 8 7 6 5 4 4 3 3 4 4 4 4 3 1 7 3 2 4 9 18 17 14 15 10 6 5 2 7 8 3 7 4 6 4 13 12 16 17 18 20 16 14 12 17
10 9 8 6 6 5 4 3 2 2 4 6 4 2 2 5 7 4 4 10 18 17 14 16 14 9 12 8 10 7 7 10 6 4 3 9 11 8 18 15 20 21 19 19 21
12 10 9 8 7 6 5 5 4 6 7 7 5 4 0 3 8 14 3 10 18 18 18 17 16 10 14 13 13 13 18 16 11 9 8 4 8 9 16 15 26 24 24 22 21
15 14 12 11 10 7 6 6 7 6 11 11 8 6 3 3 6 14 6 10 13 15 17 16 17 19 18 13 13 19 10 5 5 4 7 6 12 13 12 21 20 22 26 22 26
16 16 14 14 12 9 7 7 11 16 19 10 14 12 11 11 7 14 4 8 13 11 7 15 23 14 11 8 12 13 12 7 2 6 6 7 9 15 16 22 18 22 29 26 23
16 16 14 14 13 10 9 10 14 18 22 12 15 13 11 12 10 12 2 7 6 6 8 15 5 4 12 13 17 25 22 10 7 5 10 14 14 13 3 21 16 23 24 28 22
15 14 14 13 10 11 13 12 14 16 13 7 6 8 17 12 14 15 5 3 6 7 5 8 5 9 12 17 21 20 9 12 13 5 14 19 8 17 10 15 25 26 30 35 30
15 13 14 9 11 10 12 11 8 5 3 0 5 6 12 10 6 6 5 11 5 9 12 17 16 17 20 20 10 11 7 8 18 14 13 20 10 15 18 16 21 23 31 26 33
16 13 12 9 10 15 13 10 6 4 7 7 9 4 13 13 9 4 12 16 11 13 15 18 17 18 18 14 14 12 12 16 13 13 10 1 23 8 14 12 15 20 27 28 30
15 13 9 9 11 11 12 13 7 7 5 6 17 12 6 15 14 11 18 20 13 12 16 15 20 19 17 18 16 14 14 3 5 2 6 3 3 13 18 16 11 18 25 27 30
15 11 8 8 8 9 12 17 11 5 7 9 9 16 17 10 14 15 19 20 18 12 11 12 12 15 14 23 18 15 17 10 4 4 5 4 4 14 12 13 9 7 21 23 29
11 10 7 5 9 11 13 21 10 11 1 8 6 7 25 20 18 21 27 27 24 16 14 9 10 9 19 26 23 17 18 18 15 4 2 6 10 7 6 10 10 10 9 22 31
8 5 2 4 5 9 14 22 17 15 11 9 11 8 9 11 18 21 30 27 29 26 21 21 20 9 13 11 20 16 16 14 13 4 5 5 6 11 19 19 18 13 7 13 21
9 1 5 2 3 4 12 17 16 13 15 10 13 16 17 18 16 14 6 11 24 32 28 25 29 18 15 12 16 21 19 15 15 13 8 4 9 16 16 20 21 15 11 12 15
6 2 3 4 9 9 5 4 11 6 4 10 14 14 16 10 14 13 16 12 9 16 37 29 34 28 22 17 13 21 17 18 15 7 6 4 1 4 5 20 22 19 15 13 11
3 5 5 3 4 13 9 14 14 13 11 12 21 18 21 18 16 9 15 16 8 8 6 16 25 22 13 19 14 14 21 18 19 14 11 4 8 10 8 21 25 27 21 18 16
6 10 17 17 18 20 21 15 14 14 15 14 11 17 20 23 21 24 20 19 13 14 13 18 19 16 23 14 11 13 20 19 6 2 5 4 11 18 15 22 28 28 24 27 23
9 17 16 16 21 22 17 17 15 16 16 14 15 5 11 20 19 27 27 22 21 16 14 12 29 19 17 12 9 13 12 10 10 9 2 2 13 20 15 19 26 28 33 24 20
13 14 16 21 20 25 22 19 16 16 14 15 18 18 19 14 10 9 15 18 18 19 15 12 5 26 26 19 13 14 12 15 14 15 15 14 8 24 21 21 23 32 26 20 19
16 17 18 19 21 23 21 23 22 20 20 12 16 17 21 17 16 13 11 11 11 17 14 10 4 5 5 15 19 14 16 16 17 20 20 19 12 21 29 28 23 25 26 24 22
Wind_Direction
50 53 51 49 49 54 51 351 227 232 233 229 223 222 220 216 214 211 202 196 178 163 155 132 119 83 303 291 297 292 15 6 199 195 178 148 114 157 166 235 126 257 64 149 126
46 47 50 48 48 44 40 33 14 241 232 229 226 221 220 221 215 201 216 200 195 181 162 149 157 175 65 303 287 279 315 31 5 153 174 158 130 140 158 155 206 186 123 156 124
43 42 40 41 44 45 49 64 78 75 139 222 224 221 215 216 215 188 207 198 198 194 173 156 216 250 12 338 297 246 356 16 12 201 196 226 172 155 152 185 285 359 64 157 134
37 37 32 30 34 41 42 57 71 80 79 139 211 209 205 198 175 196 203 202 201 196 178 185 224 108 16 351 187 196 23 338 347 237 212 198 171 190 180 179 213 328 336 164 134
27 29 30 29 31 34 36 38 58 74 72 98 182 194 198 189 157 180 203 206 203 194 177 182 148 4 1 22 80 308 329 87 29 71 119 187 209 190 173 163 178 202 304 151 121
19 20 23 26 25 26 27 28 29 35 16 347 225 205 200 183 214 229 211 210 201 193 181 172 140 345 17 357 354 360 113 111 69 20 178 173 188 186 169 169 181 177 168 129 141
3 9 9 9 15 13 18 24 27 18 354 321 290 253 219 202 205 343 232 209 195 195 187 185 191 337 336 343 52 68 89 88 8 321 237 216 205 193 185 190 167 166 160 151 200
343 346 349 349 345 349 354 357 0 2 348 333 322 303 230 245 296 134 181 197 193 199 194 201 191 261 299 335 298 311 199 240 310 341 219 218 220 195 193 184 182 177 168 166 186
324 325 325 322 318 313 310 312 318 337 332 318 307 297 112 325 300 341 187 188 201 202 205 202 214 230 206 230 276 258 261 240 263 280 201 214 210 171 192 226 190 191 187 188 204
307 306 307 306 303 301 294 275 276 296 296 289 259 269 322 7 9 9 320 188 197 202 211 205 217 240 206 221 244 259 248 270 281 250 239 193 187 196 187 207 187 193 194 205 210
306 302 294 291 293 291 285 261 281 288 293 278 227 222 191 269 331 346 291 189 178 200 218 218 234 233 196 215 262 275 250 260 339 152 158 125 189 200 225 230 217 207 199 209 207
305 301 298 285 282 286 288 267 271 292 292 269 255 210 173 176 260 311 284 187 184 198 211 211 230 214 198 235 291 221 268 198 112 65 155 192 186 206 230 233 222 211 205 195 199
300 298 289 288 275 268 253 225 236 264 288 303 257 238 198 216 207 279 332 142 103 173 176 211 147 245 260 271 266 250 264 258 182 167 160 217 234 228 305 223 216 209 195 195 208
304 297 289 276 278 255 246 245 245 269 294 321 258 220 201 197 239 262 229 237 211 185 193 255 222 266 272 272 275 240 277 267 209 181 210 197 224 234 244 186 211 202 207 206 201
301 295 286 267 253 248 243 246 259 270 322 190 118 133 204 190 130 161 193 214 265 232 245 250 281 282 276 277 275 242 281 267 223 230 217 208 251 269 231 238 211 205 208 214 207
307 301 282 268 241 236 237 229 224 210 255 183 201 208 183 198 175 240 236 223 270 233 246 261 258 260 263 257 250 268 265 263 272 259 244 216 235 286 244 271 253 220 206 210 217
316 312 293 267 242 230 225 209 200 224 175 206 212 216 197 182 177 223 208 215 234 238 251 249 250 252 249 260 241 241 245 275 333 320 224 131 200 286 285 280 275 260 218 215 218
319 316 298 259 230 216 202 195 216 240 261 329 167 217 213 197 205 203 211 228 236 244 259 268 291 236 233 234 248 242 227 211 190 186 195 231 223 290 271 255 202 205 216 213 219
316 315 308 252 225 214 202 198 221 245 283 328 341 230 214 227 237 215 223 236 249 250 226 217 257 284 263 250 232 230 229 238 228 197 219 249 255 226 197 198 175 163 210 222 220
318 338 343 56 236 216 217 225 233 236 247 283 320 348 321 313 244 246 236 247 249 251 262 258 258 307 323 207 226 233 232 252 223 138 225 246 227 208 201 211 194 176 173 208 212
320 77 158 304 253 272 248 253 275 284 275 288 286 299 314 289 294 286 260 297 266 264 252 252 245 277 280 241 221 224 230 246 255 243 174 192 245 229 254 223 199 191 182 185 196
305 297 243 348 359 330 290 279 301 292 256 276 282 292 293 306 286 289 272 282 276 316 248 245 245 241 259 259 255 242 239 227 245 245 248 245 260 176 245 210 207 201 193 181 186
271 203 242 263 322 334 311 280 292 305 287 282 285 284 286 277 307 305 276 257 300 240 289 256 221 222 243 251 268 249 234 247 248 276 298 238 207 194 188 199 204 199 193 190 197
198 186 197 223 249 270 283 276 279 243 273 262 283 263 277 270 260 276 290 261 261 269 247 252 246 237 229 241 236 241 230 235 273 242 50 77 188 182 201 185 190 202 199 189 221
256 228 210 209 225 245 256 263 287 285 269 273 280 284 271 279 286 267 265 264 252 270 259 262 228 239 237 239 257 239 234 250 285 277 183 137 207 202 221 194 192 197 192 212 231
282 264 256 253 247 255 257 266 258 253 281 282 300 270 282 272 264 278 268 265 264 252 251 265 286 233 245 250 254 221 254 273 268 307 261 290 259 198 190 189 191 196 209 225 241
292 282 273 264 263 271 264 260 251 266 229 256 288 277 258 255 260 244 251 235 252 264 269 259 280 254 260 248 254 247 251 241 276 277 268 280 258 197 205 208 220 226 226 224 221